User: anonymous   Login
Location: Arborea
(39.7744°N, 8.5819°E)
Time: 21:31:45
(UTC+00:00)
Language:

CUTE 1.7 + AOD 2 - Orbit

View from above orbital plane
View from above orbital plane
View from above satellite
View from above satellite

Ground track
Ground track

The orbit data is extracted from the following two-line orbital elements,

1 32785U 08021C   24147.88978139  .00005602  00000-0  49713-3 0  9997
2 32785  97.7535 113.4015 0012195  43.7923 316.4263 14.96518323872367
Epoch (UTC): 26 May 2024 21:21:17
Eccentricity: 0.0012195
inclination: 97.7535°
perigee height: 569 km
apogee height: 586 km
right ascension of ascending node: 113.4015°
argument of perigee: 43.7923°
revolutions per day: 14.96518323
mean anomaly at epoch: 316.4263°
orbit number at epoch: 87236

The dashed part of the orbit path shows where the satellite is in the earth's shadow,  

DLR